Time,TemperatureF,DewpointF,PressureIn,WindDirection,WindDirectionDegrees,WindSpeedMPH,WindSpeedGustMPH,Humidity,HourlyPrecipIn,Conditions,Clouds,dailyrainin,SoftwareType,DateUTC
2013-10-30 00:01:00,52.7,38.8,-100.00,North,-999,-999.0,-999.0,59,-99.99,,---,-99.99,VWS V14.01,2013-10-30 07:01:00,
2013-10-30 00:06:00,52.9,39.0,-100.00,North,-999,-999.0,-999.0,59,-99.99,,---,-99.99,VWS V14.01,2013-10-30 07:06:00,
2013-10-30 00:11:00,52.7,38.8,-100.00,North,-999,-999.0,-999.0,59,-99.99,,---,-99.99,VWS V14.01,2013-10-30 07:11:00,
2013-10-30 00:16:00,52.3,38.5,-100.00,North,-999,-999.0,-999.0,59,-99.99,,---,-99.99,VWS V14.01,2013-10-30 07:16:00,
2013-10-30 00:21:00,52.2,38.3,-100.00,North,-999,-999.0,-999.0,59,-99.99,,---,-99.99,VWS V14.01,2013-10-30 07:21:00,
2013-10-30 00:27:00,52.0,38.1,-100.00,North,-999,-999.0,-999.0,59,-99.99,,---,-99.99,VWS V14.01,2013-10-30 07:27:00,
2013-10-30 00:32:00,51.8,37.9,-100.00,North,-999,-999.0,-999.0,59,-99.99,,---,-99.99,VWS V14.01,2013-10-30 07:32:00,
2013-10-30 00:37:00,51.6,38.2,-100.00,North,-999,-999.0,-999.0,60,-99.99,,---,-99.99,VWS V14.01,2013-10-30 07:37:00,
2013-10-30 00:42:00,51.6,38.2,-100.00,North,-999,-999.0,-999.0,60,-99.99,,---,-99.99,VWS V14.01,2013-10-30 07:42:00,
2013-10-30 00:47:00,51.6,38.2,-100.00,North,-999,-999.0,-999.0,60,-99.99,,---,-99.99,VWS V14.01,2013-10-30 07:47:00,
2013-10-30 00:52:00,51.6,38.2,-100.00,North,-999,-999.0,-999.0,60,-99.99,,---,-99.99,VWS V14.01,2013-10-30 07:52:00,
2013-10-30 00:57:00,51.4,38.0,-100.00,North,-999,-999.0,-999.0,60,-99.99,,---,-99.99,VWS V14.01,2013-10-30 07:57:00,
2013-10-30 01:02:00,51.3,37.9,-100.00,North,-999,-999.0,-999.0,60,-99.99,,---,-99.99,VWS V14.01,2013-10-30 08:02:00,
2013-10-30 01:11:00,50.9,38.0,-100.00,North,-999,-999.0,-999.0,61,-99.99,,---,-99.99,VWS V14.01,2013-10-30 08:11:00,
2013-10-30 01:16:00,50.9,38.0,-100.00,North,-999,-999.0,-999.0,61,-99.99,,---,-99.99,VWS V14.01,2013-10-30 08:16:00,
2013-10-30 01:21:00,50.9,38.0,-100.00,North,-999,-999.0,-999.0,61,-99.99,,---,-99.99,VWS V14.01,2013-10-30 08:21:00,
2013-10-30 01:26:00,50.7,37.8,-100.00,North,-999,-999.0,-999.0,61,-99.99,,---,-99.99,VWS V14.01,2013-10-30 08:26:00,
2013-10-30 01:31:00,50.5,37.6,-100.00,North,-999,-999.0,-999.0,61,-99.99,,---,-99.99,VWS V14.01,2013-10-30 08:31:00,
2013-10-30 01:36:00,50.5,37.6,-100.00,North,-999,-999.0,-999.0,61,-99.99,,---,-99.99,VWS V14.01,2013-10-30 08:36:00,
2013-10-30 01:41:00,50.4,37.4,-100.00,North,-999,-999.0,-999.0,61,-99.99,,---,-99.99,VWS V14.01,2013-10-30 08:41:00,
2013-10-30 01:46:00,50.4,37.4,-100.00,North,-999,-999.0,-999.0,61,-99.99,,---,-99.99,VWS V14.01,2013-10-30 08:46:00,
2013-10-30 01:51:00,50.2,37.3,-100.00,North,-999,-999.0,-999.0,61,-99.99,,---,-99.99,VWS V14.01,2013-10-30 08:51:00,
2013-10-30 01:56:00,50.2,37.3,-100.00,North,-999,-999.0,-999.0,61,-99.99,,---,-99.99,VWS V14.01,2013-10-30 08:56:00,
2013-10-30 02:01:00,50.2,37.3,-100.00,North,-999,-999.0,-999.0,61,-99.99,,---,-99.99,VWS V14.01,2013-10-30 09:01:00,
2013-10-30 02:11:00,50.0,37.5,-100.00,North,-999,-999.0,-999.0,62,-99.99,,---,-99.99,VWS V14.01,2013-10-30 09:11:00,
2013-10-30 02:16:00,49.8,37.3,-100.00,North,-999,-999.0,-999.0,62,-99.99,,---,-99.99,VWS V14.01,2013-10-30 09:16:00,
2013-10-30 02:21:00,49.8,37.3,-100.00,North,-999,-999.0,-999.0,62,-99.99,,---,-99.99,VWS V14.01,2013-10-30 09:21:00,
2013-10-30 02:26:00,49.6,37.2,-100.00,North,-999,-999.0,-999.0,62,-99.99,,---,-99.99,VWS V14.01,2013-10-30 09:26:00,
2013-10-30 02:31:00,49.6,37.2,-100.00,North,-999,-999.0,-999.0,62,-99.99,,---,-99.99,VWS V14.01,2013-10-30 09:31:00,
2013-10-30 02:36:00,49.5,37.0,-100.00,North,-999,-999.0,-999.0,62,-99.99,,---,-99.99,VWS V14.01,2013-10-30 09:36:00,
2013-10-30 02:41:00,49.5,37.0,-100.00,North,-999,-999.0,-999.0,62,-99.99,,---,-99.99,VWS V14.01,2013-10-30 09:41:00,
2013-10-30 02:46:00,49.3,36.8,-100.00,North,-999,-999.0,-999.0,62,-99.99,,---,-99.99,VWS V14.01,2013-10-30 09:46:00,
2013-10-30 02:51:00,49.3,36.8,-100.00,North,-999,-999.0,-999.0,62,-99.99,,---,-99.99,VWS V14.01,2013-10-30 09:51:00,
2013-10-30 02:56:00,49.3,36.8,-100.00,North,-999,-999.0,-999.0,62,-99.99,,---,-99.99,VWS V14.01,2013-10-30 09:56:00,
2013-10-30 03:01:00,49.1,36.7,-100.00,North,-999,-999.0,-999.0,62,-99.99,,---,-99.99,VWS V14.01,2013-10-30 10:01:00,
2013-10-30 03:11:00,49.1,37.1,-100.00,North,-999,-999.0,-999.0,63,-99.99,,---,-99.99,VWS V14.01,2013-10-30 10:11:00,
2013-10-30 03:16:00,49.1,37.1,-100.00,North,-999,-999.0,-999.0,63,-99.99,,---,-99.99,VWS V14.01,2013-10-30 10:16:00,
2013-10-30 03:21:00,48.9,36.9,-100.00,North,-999,-999.0,-999.0,63,-99.99,,---,-99.99,VWS V14.01,2013-10-30 10:21:00,
2013-10-30 03:26:00,48.9,36.9,-100.00,North,-999,-999.0,-999.0,63,-99.99,,---,-99.99,VWS V14.01,2013-10-30 10:26:00,
2013-10-30 03:31:00,48.9,36.9,-100.00,North,-999,-999.0,-999.0,63,-99.99,,---,-99.99,VWS V14.01,2013-10-30 10:31:00,
2013-10-30 03:36:00,48.7,36.7,-100.00,North,-999,-999.0,-999.0,63,-99.99,,---,-99.99,VWS V14.01,2013-10-30 10:36:00,
2013-10-30 03:41:00,48.7,36.7,-100.00,North,-999,-999.0,-999.0,63,-99.99,,---,-99.99,VWS V14.01,2013-10-30 10:41:00,
2013-10-30 03:46:00,48.7,36.7,-100.00,North,-999,-999.0,-999.0,63,-99.99,,---,-99.99,VWS V14.01,2013-10-30 10:46:00,
2013-10-30 03:51:00,48.7,36.7,-100.00,North,-999,-999.0,-999.0,63,-99.99,,---,-99.99,VWS V14.01,2013-10-30 10:51:00,
2013-10-30 03:56:00,48.7,37.1,-100.00,North,-999,-999.0,-999.0,64,-99.99,,---,-99.99,VWS V14.01,2013-10-30 10:56:00,
2013-10-30 04:01:00,48.7,37.1,-100.00,North,-999,-999.0,-999.0,64,-99.99,,---,-99.99,VWS V14.01,2013-10-30 11:01:00,
2013-10-30 04:06:00,48.6,37.0,-100.00,North,-999,-999.0,-999.0,64,-99.99,,---,-99.99,VWS V14.01,2013-10-30 11:06:00,
2013-10-30 04:11:00,48.4,36.4,-100.00,North,-999,-999.0,-999.0,63,-99.99,,---,-99.99,VWS V14.01,2013-10-30 11:11:00,
2013-10-30 04:16:00,48.2,36.6,-100.00,North,-999,-999.0,-999.0,64,-99.99,,---,-99.99,VWS V14.01,2013-10-30 11:16:00,
2013-10-30 04:21:00,48.2,36.6,-100.00,North,-999,-999.0,-999.0,64,-99.99,,---,-99.99,VWS V14.01,2013-10-30 11:21:00,
2013-10-30 04:26:00,48.2,36.6,-100.00,North,-999,-999.0,-999.0,64,-99.99,,---,-99.99,VWS V14.01,2013-10-30 11:26:00,
2013-10-30 04:31:00,48.2,36.6,-100.00,North,-999,-999.0,-999.0,64,-99.99,,---,-99.99,VWS V14.01,2013-10-30 11:31:00,
2013-10-30 04:36:00,48.2,36.6,-100.00,North,-999,-999.0,-999.0,64,-99.99,,---,-99.99,VWS V14.01,2013-10-30 11:36:00,
2013-10-30 04:41:00,48.0,36.4,-100.00,North,-999,-999.0,-999.0,64,-99.99,,---,-99.99,VWS V14.01,2013-10-30 11:41:00,
2013-10-30 04:46:00,47.8,36.3,-100.00,North,-999,-999.0,-999.0,64,-99.99,,---,-99.99,VWS V14.01,2013-10-30 11:46:00,
2013-10-30 04:51:00,47.8,36.3,-100.00,North,-999,-999.0,-999.0,64,-99.99,,---,-99.99,VWS V14.01,2013-10-30 11:51:00,
2013-10-30 04:56:00,47.8,36.7,-100.00,North,-999,-999.0,-999.0,65,-99.99,,---,-99.99,VWS V14.01,2013-10-30 11:56:00,
2013-10-30 05:01:00,47.8,36.7,-100.00,North,-999,-999.0,-999.0,65,-99.99,,---,-99.99,VWS V14.01,2013-10-30 12:01:00,
2013-10-30 05:06:00,47.8,36.7,-100.00,North,-999,-999.0,-999.0,65,-99.99,,---,-99.99,VWS V14.01,2013-10-30 12:06:00,
2013-10-30 05:11:00,47.8,36.7,-100.00,North,-999,-999.0,-999.0,65,-99.99,,---,-99.99,VWS V14.01,2013-10-30 12:11:00,
2013-10-30 05:16:00,47.7,36.5,-100.00,North,-999,-999.0,-999.0,65,-99.99,,---,-99.99,VWS V14.01,2013-10-30 12:16:00,
2013-10-30 05:21:00,47.7,36.5,-100.00,North,-999,-999.0,-999.0,65,-99.99,,---,-99.99,VWS V14.01,2013-10-30 12:21:00,
2013-10-30 05:26:00,47.7,36.5,-100.00,North,-999,-999.0,-999.0,65,-99.99,,---,-99.99,VWS V14.01,2013-10-30 12:26:00,
2013-10-30 05:31:00,47.5,36.3,-100.00,North,-999,-999.0,-999.0,65,-99.99,,---,-99.99,VWS V14.01,2013-10-30 12:31:00,
2013-10-30 05:36:00,47.3,36.2,-100.00,North,-999,-999.0,-999.0,65,-99.99,,---,-99.99,VWS V14.01,2013-10-30 12:36:00,
2013-10-30 05:41:00,47.3,36.2,-100.00,North,-999,-999.0,-999.0,65,-99.99,,---,-99.99,VWS V14.01,2013-10-30 12:41:00,
2013-10-30 05:46:00,47.3,36.2,-100.00,North,-999,-999.0,-999.0,65,-99.99,,---,-99.99,VWS V14.01,2013-10-30 12:46:00,
2013-10-30 05:51:00,47.1,36.0,-100.00,North,-999,-999.0,-999.0,65,-99.99,,---,-99.99,VWS V14.01,2013-10-30 12:51:00,
2013-10-30 05:56:00,47.1,36.0,-100.00,North,-999,-999.0,-999.0,65,-99.99,,---,-99.99,VWS V14.01,2013-10-30 12:56:00,
2013-10-30 06:01:00,47.1,36.0,-100.00,North,-999,-999.0,-999.0,65,-99.99,,---,-99.99,VWS V14.01,2013-10-30 13:01:00,
2013-10-30 06:06:00,46.9,35.8,-100.00,North,-999,-999.0,-999.0,65,-99.99,,---,-99.99,VWS V14.01,2013-10-30 13:06:00,
2013-10-30 06:11:00,46.9,36.2,-100.00,North,-999,-999.0,-999.0,66,-99.99,,---,-99.99,VWS V14.01,2013-10-30 13:11:00,
2013-10-30 06:16:00,47.1,36.4,-100.00,North,-999,-999.0,-999.0,66,-99.99,,---,-99.99,VWS V14.01,2013-10-30 13:16:00,
2013-10-30 06:21:00,47.1,36.4,-100.00,North,-999,-999.0,-999.0,66,-99.99,,---,-99.99,VWS V14.01,2013-10-30 13:21:00,
2013-10-30 06:26:00,46.9,36.2,-100.00,North,-999,-999.0,-999.0,66,-99.99,,---,-99.99,VWS V14.01,2013-10-30 13:26:00,
2013-10-30 06:31:00,46.8,36.0,-100.00,North,-999,-999.0,-999.0,66,-99.99,,---,-99.99,VWS V14.01,2013-10-30 13:31:00,
2013-10-30 06:36:00,46.8,36.0,-100.00,North,-999,-999.0,-999.0,66,-99.99,,---,-99.99,VWS V14.01,2013-10-30 13:36:00,
2013-10-30 06:41:00,46.8,36.0,-100.00,North,-999,-999.0,-999.0,66,-99.99,,---,-99.99,VWS V14.01,2013-10-30 13:41:00,
2013-10-30 06:46:00,46.6,35.8,-100.00,North,-999,-999.0,-999.0,66,-99.99,,---,-99.99,VWS V14.01,2013-10-30 13:46:00,
2013-10-30 06:51:00,46.8,36.0,-100.00,North,-999,-999.0,-999.0,66,-99.99,,---,-99.99,VWS V14.01,2013-10-30 13:51:00,
2013-10-30 06:56:00,46.8,36.0,-100.00,North,-999,-999.0,-999.0,66,-99.99,,---,-99.99,VWS V14.01,2013-10-30 13:56:00,
2013-10-30 07:01:00,46.8,36.0,-100.00,North,-999,-999.0,-999.0,66,-99.99,,---,-99.99,VWS V14.01,2013-10-30 14:01:00,
2013-10-30 07:06:00,46.8,36.0,-100.00,North,-999,-999.0,-999.0,66,-99.99,,---,-99.99,VWS V14.01,2013-10-30 14:06:00,
2013-10-30 07:12:00,46.6,35.8,-100.00,North,-999,-999.0,-999.0,66,-99.99,,---,-99.99,VWS V14.01,2013-10-30 14:12:00,
2013-10-30 07:17:00,46.6,35.8,-100.00,North,-999,-999.0,-999.0,66,-99.99,,---,-99.99,VWS V14.01,2013-10-30 14:17:00,
2013-10-30 07:22:00,46.6,35.8,-100.00,North,-999,-999.0,-999.0,66,-99.99,,---,-99.99,VWS V14.01,2013-10-30 14:22:00,
2013-10-30 07:27:00,46.4,35.7,-100.00,North,-999,-999.0,-999.0,66,-99.99,,---,-99.99,VWS V14.01,2013-10-30 14:27:00,
2013-10-30 07:32:00,46.4,35.7,-100.00,North,-999,-999.0,-999.0,66,-99.99,,---,-99.99,VWS V14.01,2013-10-30 14:32:00,
2013-10-30 07:37:00,46.4,36.0,-100.00,North,-999,-999.0,-999.0,67,-99.99,,---,-99.99,VWS V14.01,2013-10-30 14:37:00,
2013-10-30 07:42:00,46.6,36.2,-100.00,North,-999,-999.0,-999.0,67,-99.99,,---,-99.99,VWS V14.01,2013-10-30 14:42:00,
2013-10-30 07:47:00,46.6,36.2,-100.00,North,-999,-999.0,-999.0,67,-99.99,,---,-99.99,VWS V14.01,2013-10-30 14:47:00,
2013-10-30 07:52:00,46.6,36.2,-100.00,North,-999,-999.0,-999.0,67,-99.99,,---,-99.99,VWS V14.01,2013-10-30 14:52:00,
2013-10-30 07:57:00,46.8,36.4,-100.00,North,-999,-999.0,-999.0,67,-99.99,,---,-99.99,VWS V14.01,2013-10-30 14:57:00,
2013-10-30 08:02:00,46.9,36.6,-100.00,North,-999,-999.0,-999.0,67,-99.99,,---,-99.99,VWS V14.01,2013-10-30 15:02:00,
2013-10-30 08:07:00,47.1,36.7,-100.00,North,-999,-999.0,-999.0,67,-99.99,,---,-99.99,VWS V14.01,2013-10-30 15:07:00,
2013-10-30 08:12:00,47.3,36.9,-100.00,North,-999,-999.0,-999.0,67,-99.99,,---,-99.99,VWS V14.01,2013-10-30 15:12:00,
2013-10-30 08:17:00,47.5,37.1,-100.00,North,-999,-999.0,-999.0,67,-99.99,,---,-99.99,VWS V14.01,2013-10-30 15:17:00,
2013-10-30 08:22:00,47.8,37.4,-100.00,North,-999,-999.0,-999.0,67,-99.99,,---,-99.99,VWS V14.01,2013-10-30 15:22:00,
2013-10-30 08:27:00,48.0,37.6,-100.00,North,-999,-999.0,-999.0,67,-99.99,,---,-99.99,VWS V14.01,2013-10-30 15:27:00,
2013-10-30 08:32:00,48.4,37.9,-100.00,North,-999,-999.0,-999.0,67,-99.99,,---,-99.99,VWS V14.01,2013-10-30 15:32:00,
2013-10-30 08:37:00,48.7,38.3,-100.00,North,-999,-999.0,-999.0,67,-99.99,,---,-99.99,VWS V14.01,2013-10-30 15:37:00,
2013-10-30 08:42:00,49.1,38.6,-100.00,North,-999,-999.0,-999.0,67,-99.99,,---,-99.99,VWS V14.01,2013-10-30 15:42:00,
2013-10-30 08:47:00,49.5,39.0,-100.00,North,-999,-999.0,-999.0,67,-99.99,,---,-99.99,VWS V14.01,2013-10-30 15:47:00,
2013-10-30 08:52:00,49.8,39.3,-100.00,North,-999,-999.0,-999.0,67,-99.99,,---,-99.99,VWS V14.01,2013-10-30 15:52:00,
2013-10-30 08:57:00,50.2,39.7,-100.00,North,-999,-999.0,-999.0,67,-99.99,,---,-99.99,VWS V14.01,2013-10-30 15:57:00,
2013-10-30 09:02:00,50.4,39.8,-100.00,North,-999,-999.0,-999.0,67,-99.99,,---,-99.99,VWS V14.01,2013-10-30 16:02:00,
2013-10-30 09:11:00,51.3,40.7,-100.00,North,-999,-999.0,-999.0,67,-99.99,,---,-99.99,VWS V14.01,2013-10-30 16:11:00,
2013-10-30 09:16:00,51.4,40.9,-100.00,North,-999,-999.0,-999.0,67,-99.99,,---,-99.99,VWS V14.01,2013-10-30 16:16:00,
2013-10-30 09:21:00,52.0,41.4,-100.00,North,-999,-999.0,-999.0,67,-99.99,,---,-99.99,VWS V14.01,2013-10-30 16:21:00,
2013-10-30 09:26:00,52.2,41.2,-100.00,North,-999,-999.0,-999.0,66,-99.99,,---,-99.99,VWS V14.01,2013-10-30 16:26:00,
2013-10-30 09:31:00,52.5,41.5,-100.00,North,-999,-999.0,-999.0,66,-99.99,,---,-99.99,VWS V14.01,2013-10-30 16:31:00,
2013-10-30 09:36:00,52.9,41.8,-100.00,North,-999,-999.0,-999.0,66,-99.99,,---,-99.99,VWS V14.01,2013-10-30 16:36:00,
2013-10-30 09:41:00,53.1,42.0,-100.00,North,-999,-999.0,-999.0,66,-99.99,,---,-99.99,VWS V14.01,2013-10-30 16:41:00,
2013-10-30 09:46:00,53.6,42.5,-100.00,North,-999,-999.0,-999.0,66,-99.99,,---,-99.99,VWS V14.01,2013-10-30 16:46:00,
2013-10-30 09:51:00,54.1,43.0,-100.00,North,-999,-999.0,-999.0,66,-99.99,,---,-99.99,VWS V14.01,2013-10-30 16:51:00,
2013-10-30 09:56:00,54.5,43.0,-100.00,North,-999,-999.0,-999.0,65,-99.99,,---,-99.99,VWS V14.01,2013-10-30 16:56:00,
2013-10-30 10:01:00,55.0,43.5,-100.00,North,-999,-999.0,-999.0,65,-99.99,,---,-99.99,VWS V14.01,2013-10-30 17:01:00,
2013-10-30 10:06:00,55.4,43.8,-100.00,North,-999,-999.0,-999.0,65,-99.99,,---,-99.99,VWS V14.01,2013-10-30 17:06:00,
2013-10-30 10:11:00,55.8,43.8,-100.00,North,-999,-999.0,-999.0,64,-99.99,,---,-99.99,VWS V14.01,2013-10-30 17:11:00,
2013-10-30 10:16:00,55.8,43.8,-100.00,North,-999,-999.0,-999.0,64,-99.99,,---,-99.99,VWS V14.01,2013-10-30 17:16:00,
2013-10-30 10:21:00,56.3,44.3,-100.00,North,-999,-999.0,-999.0,64,-99.99,,---,-99.99,VWS V14.01,2013-10-30 17:21:00,
2013-10-30 10:26:00,56.7,44.2,-100.00,North,-999,-999.0,-999.0,63,-99.99,,---,-99.99,VWS V14.01,2013-10-30 17:26:00,
2013-10-30 10:31:00,56.8,44.8,-100.00,North,-999,-999.0,-999.0,64,-99.99,,---,-99.99,VWS V14.01,2013-10-30 17:31:00,
2013-10-30 10:36:00,57.4,44.9,-100.00,North,-999,-999.0,-999.0,63,-99.99,,---,-99.99,VWS V14.01,2013-10-30 17:36:00,
2013-10-30 10:41:00,57.6,45.1,-100.00,North,-999,-999.0,-999.0,63,-99.99,,---,-99.99,VWS V14.01,2013-10-30 17:41:00,
2013-10-30 10:46:00,57.9,45.4,-100.00,North,-999,-999.0,-999.0,63,-99.99,,---,-99.99,VWS V14.01,2013-10-30 17:46:00,
2013-10-30 10:51:00,57.9,45.0,-100.00,North,-999,-999.0,-999.0,62,-99.99,,---,-99.99,VWS V14.01,2013-10-30 17:51:00,
2013-10-30 10:56:00,57.9,45.0,-100.00,North,-999,-999.0,-999.0,62,-99.99,,---,-99.99,VWS V14.01,2013-10-30 17:56:00,
2013-10-30 11:01:00,58.5,45.5,-100.00,North,-999,-999.0,-999.0,62,-99.99,,---,-99.99,VWS V14.01,2013-10-30 18:01:00,
2013-10-30 11:06:00,58.8,45.8,-100.00,North,-999,-999.0,-999.0,62,-99.99,,---,-99.99,VWS V14.01,2013-10-30 18:06:00,
2013-10-30 11:11:00,59.2,45.8,-100.00,North,-999,-999.0,-999.0,61,-99.99,,---,-99.99,VWS V14.01,2013-10-30 18:11:00,
2013-10-30 11:16:00,59.7,46.3,-100.00,North,-999,-999.0,-999.0,61,-99.99,,---,-99.99,VWS V14.01,2013-10-30 18:16:00,
2013-10-30 11:21:00,60.3,46.8,-100.00,North,-999,-999.0,-999.0,61,-99.99,,---,-99.99,VWS V14.01,2013-10-30 18:21:00,
2013-10-30 11:26:00,60.3,46.3,-100.00,North,-999,-999.0,-999.0,60,-99.99,,---,-99.99,VWS V14.01,2013-10-30 18:26:00,
2013-10-30 11:31:00,60.4,46.5,-100.00,North,-999,-999.0,-999.0,60,-99.99,,---,-99.99,VWS V14.01,2013-10-30 18:31:00,
2013-10-30 11:36:00,60.8,46.8,-100.00,North,-999,-999.0,-999.0,60,-99.99,,---,-99.99,VWS V14.01,2013-10-30 18:36:00,
2013-10-30 11:41:00,61.2,47.2,-100.00,North,-999,-999.0,-999.0,60,-99.99,,---,-99.99,VWS V14.01,2013-10-30 18:41:00,
2013-10-30 11:46:00,61.5,47.1,-100.00,North,-999,-999.0,-999.0,59,-99.99,,---,-99.99,VWS V14.01,2013-10-30 18:46:00,
2013-10-30 11:51:00,62.1,47.6,-100.00,North,-999,-999.0,-999.0,59,-99.99,,---,-99.99,VWS V14.01,2013-10-30 18:51:00,
2013-10-30 11:56:00,62.2,47.8,-100.00,North,-999,-999.0,-999.0,59,-99.99,,---,-99.99,VWS V14.01,2013-10-30 18:56:00,
2013-10-30 12:01:00,62.6,47.6,-100.00,North,-999,-999.0,-999.0,58,-99.99,,---,-99.99,VWS V14.01,2013-10-30 19:01:00,
2013-10-30 12:06:00,63.0,48.0,-100.00,North,-999,-999.0,-999.0,58,-99.99,,---,-99.99,VWS V14.01,2013-10-30 19:06:00,
2013-10-30 12:11:00,63.3,47.8,-100.00,North,-999,-999.0,-999.0,57,-99.99,,---,-99.99,VWS V14.01,2013-10-30 19:11:00,
2013-10-30 12:16:00,63.5,48.0,-100.00,North,-999,-999.0,-999.0,57,-99.99,,---,-99.99,VWS V14.01,2013-10-30 19:16:00,
2013-10-30 12:21:00,63.9,48.3,-100.00,North,-999,-999.0,-999.0,57,-99.99,,---,-99.99,VWS V14.01,2013-10-30 19:21:00,
2013-10-30 12:26:00,63.9,47.9,-100.00,North,-999,-999.0,-999.0,56,-99.99,,---,-99.99,VWS V14.01,2013-10-30 19:26:00,
2013-10-30 12:31:00,64.2,48.2,-100.00,North,-999,-999.0,-999.0,56,-99.99,,---,-99.99,VWS V14.01,2013-10-30 19:31:00,
2013-10-30 12:36:00,64.4,47.9,-100.00,North,-999,-999.0,-999.0,55,-99.99,,---,-99.99,VWS V14.01,2013-10-30 19:36:00,
2013-10-30 12:41:00,64.8,48.2,-100.00,North,-999,-999.0,-999.0,55,-99.99,,---,-99.99,VWS V14.01,2013-10-30 19:41:00,
2013-10-30 12:46:00,64.8,47.8,-100.00,North,-999,-999.0,-999.0,54,-99.99,,---,-99.99,VWS V14.01,2013-10-30 19:46:00,
2013-10-30 12:51:00,64.4,47.4,-100.00,North,-999,-999.0,-999.0,54,-99.99,,---,-99.99,VWS V14.01,2013-10-30 19:51:00,
2013-10-30 12:56:00,64.4,47.4,-100.00,North,-999,-999.0,-999.0,54,-99.99,,---,-99.99,VWS V14.01,2013-10-30 19:56:00,
2013-10-30 13:01:00,64.4,47.4,-100.00,North,-999,-999.0,-999.0,54,-99.99,,---,-99.99,VWS V14.01,2013-10-30 20:01:00,
2013-10-30 13:06:00,64.4,46.9,-100.00,North,-999,-999.0,-999.0,53,-99.99,,---,-99.99,VWS V14.01,2013-10-30 20:06:00,
2013-10-30 13:11:00,64.6,47.1,-100.00,North,-999,-999.0,-999.0,53,-99.99,,---,-99.99,VWS V14.01,2013-10-30 20:11:00,
2013-10-30 13:16:00,65.1,47.6,-100.00,North,-999,-999.0,-999.0,53,-99.99,,---,-99.99,VWS V14.01,2013-10-30 20:16:00,
2013-10-30 13:21:00,65.3,47.8,-100.00,North,-999,-999.0,-999.0,53,-99.99,,---,-99.99,VWS V14.01,2013-10-30 20:21:00,
2013-10-30 13:26:00,65.5,47.9,-100.00,North,-999,-999.0,-999.0,53,-99.99,,---,-99.99,VWS V14.01,2013-10-30 20:26:00,
2013-10-30 13:31:00,65.7,47.6,-100.00,North,-999,-999.0,-999.0,52,-99.99,,---,-99.99,VWS V14.01,2013-10-30 20:31:00,
2013-10-30 13:36:00,65.8,47.7,-100.00,North,-999,-999.0,-999.0,52,-99.99,,---,-99.99,VWS V14.01,2013-10-30 20:36:00,
2013-10-30 13:41:00,66.0,47.9,-100.00,North,-999,-999.0,-999.0,52,-99.99,,---,-99.99,VWS V14.01,2013-10-30 20:41:00,
2013-10-30 13:46:00,66.2,47.6,-100.00,North,-999,-999.0,-999.0,51,-99.99,,---,-99.99,VWS V14.01,2013-10-30 20:46:00,
2013-10-30 13:51:00,66.2,47.6,-100.00,North,-999,-999.0,-999.0,51,-99.99,,---,-99.99,VWS V14.01,2013-10-30 20:51:00,
2013-10-30 13:57:00,66.4,47.7,-100.00,North,-999,-999.0,-999.0,51,-99.99,,---,-99.99,VWS V14.01,2013-10-30 20:57:00,
2013-10-30 14:02:00,66.6,47.9,-100.00,North,-999,-999.0,-999.0,51,-99.99,,---,-99.99,VWS V14.01,2013-10-30 21:02:00,
2013-10-30 14:07:00,66.7,47.5,-100.00,North,-999,-999.0,-999.0,50,-99.99,,---,-99.99,VWS V14.01,2013-10-30 21:07:00,
2013-10-30 14:12:00,66.9,47.7,-100.00,North,-999,-999.0,-999.0,50,-99.99,,---,-99.99,VWS V14.01,2013-10-30 21:12:00,
2013-10-30 14:17:00,67.1,47.9,-100.00,North,-999,-999.0,-999.0,50,-99.99,,---,-99.99,VWS V14.01,2013-10-30 21:17:00,
2013-10-30 14:22:00,67.1,47.3,-100.00,North,-999,-999.0,-999.0,49,-99.99,,---,-99.99,VWS V14.01,2013-10-30 21:22:00,
2013-10-30 14:27:00,66.9,47.2,-100.00,North,-999,-999.0,-999.0,49,-99.99,,---,-99.99,VWS V14.01,2013-10-30 21:27:00,
2013-10-30 14:32:00,66.9,47.2,-100.00,North,-999,-999.0,-999.0,49,-99.99,,---,-99.99,VWS V14.01,2013-10-30 21:32:00,
2013-10-30 14:37:00,66.9,47.2,-100.00,North,-999,-999.0,-999.0,49,-99.99,,---,-99.99,VWS V14.01,2013-10-30 21:37:00,
2013-10-30 14:42:00,67.1,47.3,-100.00,North,-999,-999.0,-999.0,49,-99.99,,---,-99.99,VWS V14.01,2013-10-30 21:42:00,
2013-10-30 14:47:00,67.1,47.3,-100.00,North,-999,-999.0,-999.0,49,-99.99,,---,-99.99,VWS V14.01,2013-10-30 21:47:00,
2013-10-30 14:52:00,66.9,47.2,-100.00,North,-999,-999.0,-999.0,49,-99.99,,---,-99.99,VWS V14.01,2013-10-30 21:52:00,
2013-10-30 14:57:00,66.7,47.0,-100.00,North,-999,-999.0,-999.0,49,-99.99,,---,-99.99,VWS V14.01,2013-10-30 21:57:00,
2013-10-30 15:02:00,66.9,47.2,-100.00,North,-999,-999.0,-999.0,49,-99.99,,---,-99.99,VWS V14.01,2013-10-30 22:02:00,
2013-10-30 15:11:00,67.3,46.9,-100.00,North,-999,-999.0,-999.0,48,-99.99,,---,-99.99,VWS V14.01,2013-10-30 22:11:00,
2013-10-30 15:16:00,67.3,46.9,-100.00,North,-999,-999.0,-999.0,48,-99.99,,---,-99.99,VWS V14.01,2013-10-30 22:16:00,
2013-10-30 15:21:00,67.5,47.1,-100.00,North,-999,-999.0,-999.0,48,-99.99,,---,-99.99,VWS V14.01,2013-10-30 22:21:00,
2013-10-30 15:26:00,67.5,47.1,-100.00,North,-999,-999.0,-999.0,48,-99.99,,---,-99.99,VWS V14.01,2013-10-30 22:26:00,
2013-10-30 15:31:00,67.6,47.3,-100.00,North,-999,-999.0,-999.0,48,-99.99,,---,-99.99,VWS V14.01,2013-10-30 22:31:00,
2013-10-30 15:36:00,67.8,47.4,-100.00,North,-999,-999.0,-999.0,48,-99.99,,---,-99.99,VWS V14.01,2013-10-30 22:36:00,
2013-10-30 15:41:00,67.8,47.4,-100.00,North,-999,-999.0,-999.0,48,-99.99,,---,-99.99,VWS V14.01,2013-10-30 22:41:00,
2013-10-30 15:46:00,67.6,46.7,-100.00,North,-999,-999.0,-999.0,47,-99.99,,---,-99.99,VWS V14.01,2013-10-30 22:46:00,
2013-10-30 15:51:00,67.8,47.4,-100.00,North,-999,-999.0,-999.0,48,-99.99,,---,-99.99,VWS V14.01,2013-10-30 22:51:00,
2013-10-30 15:56:00,67.6,46.7,-100.00,North,-999,-999.0,-999.0,47,-99.99,,---,-99.99,VWS V14.01,2013-10-30 22:56:00,
2013-10-30 16:01:00,67.6,46.7,-100.00,North,-999,-999.0,-999.0,47,-99.99,,---,-99.99,VWS V14.01,2013-10-30 23:01:00,
2013-10-30 16:06:00,67.6,46.7,-100.00,North,-999,-999.0,-999.0,47,-99.99,,---,-99.99,VWS V14.01,2013-10-30 23:06:00,
2013-10-30 16:11:00,67.6,46.7,-100.00,North,-999,-999.0,-999.0,47,-99.99,,---,-99.99,VWS V14.01,2013-10-30 23:11:00,
2013-10-30 16:16:00,67.6,46.7,-100.00,North,-999,-999.0,-999.0,47,-99.99,,---,-99.99,VWS V14.01,2013-10-30 23:16:00,
2013-10-30 16:21:00,67.5,46.5,-100.00,North,-999,-999.0,-999.0,47,-99.99,,---,-99.99,VWS V14.01,2013-10-30 23:21:00,
2013-10-30 16:26:00,67.3,46.4,-100.00,North,-999,-999.0,-999.0,47,-99.99,,---,-99.99,VWS V14.01,2013-10-30 23:26:00,
2013-10-30 16:31:00,67.1,46.2,-100.00,North,-999,-999.0,-999.0,47,-99.99,,---,-99.99,VWS V14.01,2013-10-30 23:31:00,
2013-10-30 16:36:00,67.1,46.2,-100.00,North,-999,-999.0,-999.0,47,-99.99,,---,-99.99,VWS V14.01,2013-10-30 23:36:00,
2013-10-30 16:42:00,67.1,46.2,-100.00,North,-999,-999.0,-999.0,47,-99.99,,---,-99.99,VWS V14.01,2013-10-30 23:42:00,
2013-10-30 16:47:00,67.1,46.2,-100.00,North,-999,-999.0,-999.0,47,-99.99,,---,-99.99,VWS V14.01,2013-10-30 23:47:00,
2013-10-30 16:52:00,67.1,46.2,-100.00,North,-999,-999.0,-999.0,47,-99.99,,---,-99.99,VWS V14.01,2013-10-30 23:52:00,
2013-10-30 16:57:00,66.9,46.0,-100.00,North,-999,-999.0,-999.0,47,-99.99,,---,-99.99,VWS V14.01,2013-10-30 23:57:00,
2013-10-30 17:02:00,66.7,45.9,-100.00,North,-999,-999.0,-999.0,47,-99.99,,---,-99.99,VWS V14.01,2013-10-31 00:02:00,
2013-10-30 17:07:00,66.7,45.3,-100.00,North,-999,-999.0,-999.0,46,-99.99,,---,-99.99,VWS V14.01,2013-10-31 00:07:00,
2013-10-30 17:12:00,66.7,45.3,-100.00,North,-999,-999.0,-999.0,46,-99.99,,---,-99.99,VWS V14.01,2013-10-31 00:12:00,
2013-10-30 17:17:00,66.7,45.3,-100.00,North,-999,-999.0,-999.0,46,-99.99,,---,-99.99,VWS V14.01,2013-10-31 00:17:00,
2013-10-30 17:22:00,66.6,45.2,-100.00,North,-999,-999.0,-999.0,46,-99.99,,---,-99.99,VWS V14.01,2013-10-31 00:22:00,
2013-10-30 17:27:00,66.4,45.6,-100.00,North,-999,-999.0,-999.0,47,-99.99,,---,-99.99,VWS V14.01,2013-10-31 00:27:00,
2013-10-30 17:32:00,66.4,45.6,-100.00,North,-999,-999.0,-999.0,47,-99.99,,---,-99.99,VWS V14.01,2013-10-31 00:32:00,
2013-10-30 17:37:00,66.2,45.4,-100.00,North,-999,-999.0,-999.0,47,-99.99,,---,-99.99,VWS V14.01,2013-10-31 00:37:00,
2013-10-30 17:42:00,66.0,45.2,-100.00,North,-999,-999.0,-999.0,47,-99.99,,---,-99.99,VWS V14.01,2013-10-31 00:42:00,
2013-10-30 17:47:00,65.8,45.1,-100.00,North,-999,-999.0,-999.0,47,-99.99,,---,-99.99,VWS V14.01,2013-10-31 00:47:00,
2013-10-30 17:52:00,65.7,44.9,-100.00,North,-999,-999.0,-999.0,47,-99.99,,---,-99.99,VWS V14.01,2013-10-31 00:52:00,
2013-10-30 17:57:00,65.7,44.9,-100.00,North,-999,-999.0,-999.0,47,-99.99,,---,-99.99,VWS V14.01,2013-10-31 00:57:00,
2013-10-30 18:02:00,65.5,44.7,-100.00,North,-999,-999.0,-999.0,47,-99.99,,---,-99.99,VWS V14.01,2013-10-31 01:02:00,
2013-10-30 18:07:00,65.3,44.6,-100.00,North,-999,-999.0,-999.0,47,-99.99,,---,-99.99,VWS V14.01,2013-10-31 01:07:00,
2013-10-30 18:12:00,65.1,44.4,-100.00,North,-999,-999.0,-999.0,47,-99.99,,---,-99.99,VWS V14.01,2013-10-31 01:12:00,
2013-10-30 18:17:00,64.8,44.1,-100.00,North,-999,-999.0,-999.0,47,-99.99,,---,-99.99,VWS V14.01,2013-10-31 01:17:00,
2013-10-30 18:22:00,64.6,43.9,-100.00,North,-999,-999.0,-999.0,47,-99.99,,---,-99.99,VWS V14.01,2013-10-31 01:22:00,
2013-10-30 18:27:00,64.4,43.8,-100.00,North,-999,-999.0,-999.0,47,-99.99,,---,-99.99,VWS V14.01,2013-10-31 01:27:00,
2013-10-30 18:32:00,64.2,44.1,-100.00,North,-999,-999.0,-999.0,48,-99.99,,---,-99.99,VWS V14.01,2013-10-31 01:32:00,
2013-10-30 18:37:00,64.2,44.1,-100.00,North,-999,-999.0,-999.0,48,-99.99,,---,-99.99,VWS V14.01,2013-10-31 01:37:00,
2013-10-30 18:42:00,64.0,44.0,-100.00,North,-999,-999.0,-999.0,48,-99.99,,---,-99.99,VWS V14.01,2013-10-31 01:42:00,
2013-10-30 18:47:00,63.9,43.8,-100.00,North,-999,-999.0,-999.0,48,-99.99,,---,-99.99,VWS V14.01,2013-10-31 01:47:00,
2013-10-30 18:52:00,63.9,43.8,-100.00,North,-999,-999.0,-999.0,48,-99.99,,---,-99.99,VWS V14.01,2013-10-31 01:52:00,
2013-10-30 18:57:00,63.7,43.6,-100.00,North,-999,-999.0,-999.0,48,-99.99,,---,-99.99,VWS V14.01,2013-10-31 01:57:00,
2013-10-30 19:02:00,63.7,43.6,-100.00,North,-999,-999.0,-999.0,48,-99.99,,---,-99.99,VWS V14.01,2013-10-31 02:02:00,
2013-10-30 19:07:00,63.5,43.5,-100.00,North,-999,-999.0,-999.0,48,-99.99,,---,-99.99,VWS V14.01,2013-10-31 02:07:00,
2013-10-30 19:12:00,63.3,43.3,-100.00,North,-999,-999.0,-999.0,48,-99.99,,---,-99.99,VWS V14.01,2013-10-31 02:12:00,
2013-10-30 19:17:00,63.1,42.6,-100.00,North,-999,-999.0,-999.0,47,-99.99,,---,-99.99,VWS V14.01,2013-10-31 02:17:00,
2013-10-30 19:22:00,63.0,42.4,-100.00,North,-999,-999.0,-999.0,47,-99.99,,---,-99.99,VWS V14.01,2013-10-31 02:22:00,
2013-10-30 19:27:00,62.8,42.3,-100.00,North,-999,-999.0,-999.0,47,-99.99,,---,-99.99,VWS V14.01,2013-10-31 02:27:00,
2013-10-30 19:32:00,62.6,42.1,-100.00,North,-999,-999.0,-999.0,47,-99.99,,---,-99.99,VWS V14.01,2013-10-31 02:32:00,
2013-10-30 19:37:00,62.6,42.1,-100.00,North,-999,-999.0,-999.0,47,-99.99,,---,-99.99,VWS V14.01,2013-10-31 02:37:00,
2013-10-30 19:42:00,62.2,42.3,-100.00,North,-999,-999.0,-999.0,48,-99.99,,---,-99.99,VWS V14.01,2013-10-31 02:42:00,
2013-10-30 19:47:00,62.1,41.6,-100.00,North,-999,-999.0,-999.0,47,-99.99,,---,-99.99,VWS V14.01,2013-10-31 02:47:00,
2013-10-30 19:52:00,61.7,41.3,-100.00,North,-999,-999.0,-999.0,47,-99.99,,---,-99.99,VWS V14.01,2013-10-31 02:52:00,
2013-10-30 19:57:00,61.7,41.3,-100.00,North,-999,-999.0,-999.0,47,-99.99,,---,-99.99,VWS V14.01,2013-10-31 02:57:00,
2013-10-30 20:01:00,61.5,41.1,-100.00,North,-999,-999.0,-999.0,47,-99.99,,---,-99.99,VWS V14.01,2013-10-31 03:01:00,
2013-10-30 20:06:00,61.3,41.0,-100.00,North,-999,-999.0,-999.0,47,-99.99,,---,-99.99,VWS V14.01,2013-10-31 03:06:00,
2013-10-30 20:11:00,61.0,40.6,-100.00,North,-999,-999.0,-999.0,47,-99.99,,---,-99.99,VWS V14.01,2013-10-31 03:11:00,
2013-10-30 20:17:00,60.8,40.5,-100.00,North,-999,-999.0,-999.0,47,-99.99,,---,-99.99,VWS V14.01,2013-10-31 03:17:00,
2013-10-30 20:22:00,60.8,40.5,-100.00,North,-999,-999.0,-999.0,47,-99.99,,---,-99.99,VWS V14.01,2013-10-31 03:22:00,
2013-10-30 20:27:00,60.6,40.8,-100.00,North,-999,-999.0,-999.0,48,-99.99,,---,-99.99,VWS V14.01,2013-10-31 03:27:00,
2013-10-30 20:32:00,60.4,40.7,-100.00,North,-999,-999.0,-999.0,48,-99.99,,---,-99.99,VWS V14.01,2013-10-31 03:32:00,
2013-10-30 20:37:00,60.1,40.3,-100.00,North,-999,-999.0,-999.0,48,-99.99,,---,-99.99,VWS V14.01,2013-10-31 03:37:00,
2013-10-30 20:42:00,59.9,39.6,-100.00,North,-999,-999.0,-999.0,47,-99.99,,---,-99.99,VWS V14.01,2013-10-31 03:42:00,
2013-10-30 20:47:00,59.5,39.3,-100.00,North,-999,-999.0,-999.0,47,-99.99,,---,-99.99,VWS V14.01,2013-10-31 03:47:00,
2013-10-30 20:52:00,59.2,39.5,-100.00,North,-999,-999.0,-999.0,48,-99.99,,---,-99.99,VWS V14.01,2013-10-31 03:52:00,
2013-10-30 20:57:00,59.2,39.5,-100.00,North,-999,-999.0,-999.0,48,-99.99,,---,-99.99,VWS V14.01,2013-10-31 03:57:00,
2013-10-30 21:02:00,59.0,39.4,-100.00,North,-999,-999.0,-999.0,48,-99.99,,---,-99.99,VWS V14.01,2013-10-31 04:02:00,
2013-10-30 21:11:00,58.8,39.2,-100.00,North,-999,-999.0,-999.0,48,-99.99,,---,-99.99,VWS V14.01,2013-10-31 04:11:00,
2013-10-30 21:12:00,58.8,39.2,-100.00,North,-999,-999.0,-999.0,48,-99.99,,---,-99.99,VWS V14.01,2013-10-31 04:12:00,
2013-10-30 21:13:00,58.8,39.2,-100.00,North,-999,-999.0,-999.0,48,-99.99,,---,-99.99,VWS V14.01,2013-10-31 04:13:00,
2013-10-30 21:15:00,58.6,39.0,-100.00,North,-999,-999.0,-999.0,48,-99.99,,---,-99.99,VWS V14.01,2013-10-31 04:15:00,
2013-10-30 21:18:00,58.5,38.9,-100.00,North,-999,-999.0,-999.0,48,-99.99,,---,-99.99,VWS V14.01,2013-10-31 04:18:00,
2013-10-30 21:24:00,58.5,39.4,-100.00,North,-999,-999.0,-999.0,49,-99.99,,---,-99.99,VWS V14.01,2013-10-31 04:24:00,
2013-10-30 21:29:00,58.3,39.2,-100.00,North,-999,-999.0,-999.0,49,-99.99,,---,-99.99,VWS V14.01,2013-10-31 04:29:00,
2013-10-30 21:34:00,58.1,39.1,-100.00,North,-999,-999.0,-999.0,49,-99.99,,---,-99.99,VWS V14.01,2013-10-31 04:34:00,
2013-10-30 21:40:00,58.1,39.1,-100.00,North,-999,-999.0,-999.0,49,-99.99,,---,-99.99,VWS V14.01,2013-10-31 04:40:00,
2013-10-30 21:46:00,57.9,38.9,-100.00,North,-999,-999.0,-999.0,49,-99.99,,---,-99.99,VWS V14.01,2013-10-31 04:46:00,
2013-10-30 21:51:00,57.6,38.6,-100.00,North,-999,-999.0,-999.0,49,-99.99,,---,-99.99,VWS V14.01,2013-10-31 04:51:00,
2013-10-30 21:56:00,57.4,38.4,-100.00,North,-999,-999.0,-999.0,49,-99.99,,---,-99.99,VWS V14.01,2013-10-31 04:56:00,
2013-10-30 22:01:00,57.2,38.2,-100.00,North,-999,-999.0,-999.0,49,-99.99,,---,-99.99,VWS V14.01,2013-10-31 05:01:00,
2013-10-30 22:06:00,57.2,38.2,-100.00,North,-999,-999.0,-999.0,49,-99.99,,---,-99.99,VWS V14.01,2013-10-31 05:06:00,
2013-10-30 22:11:00,56.8,37.9,-100.00,North,-999,-999.0,-999.0,49,-99.99,,---,-99.99,VWS V14.01,2013-10-31 05:11:00,
2013-10-30 22:16:00,56.8,38.4,-100.00,North,-999,-999.0,-999.0,50,-99.99,,---,-99.99,VWS V14.01,2013-10-31 05:16:00,
2013-10-30 22:21:00,56.8,38.4,-100.00,North,-999,-999.0,-999.0,50,-99.99,,---,-99.99,VWS V14.01,2013-10-31 05:21:00,
2013-10-30 22:26:00,56.8,38.4,-100.00,North,-999,-999.0,-999.0,50,-99.99,,---,-99.99,VWS V14.01,2013-10-31 05:26:00,
2013-10-30 22:31:00,56.7,38.2,-100.00,North,-999,-999.0,-999.0,50,-99.99,,---,-99.99,VWS V14.01,2013-10-31 05:31:00,
2013-10-30 22:36:00,56.7,38.2,-100.00,North,-999,-999.0,-999.0,50,-99.99,,---,-99.99,VWS V14.01,2013-10-31 05:36:00,
2013-10-30 22:41:00,56.7,38.2,-100.00,North,-999,-999.0,-999.0,50,-99.99,,---,-99.99,VWS V14.01,2013-10-31 05:41:00,
2013-10-30 22:46:00,56.5,38.1,-100.00,North,-999,-999.0,-999.0,50,-99.99,,---,-99.99,VWS V14.01,2013-10-31 05:46:00,
2013-10-30 22:51:00,56.1,37.8,-100.00,North,-999,-999.0,-999.0,50,-99.99,,---,-99.99,VWS V14.01,2013-10-31 05:51:00,
2013-10-30 22:56:00,55.9,37.6,-100.00,North,-999,-999.0,-999.0,50,-99.99,,---,-99.99,VWS V14.01,2013-10-31 05:56:00,
2013-10-30 23:01:00,55.8,37.4,-100.00,North,-999,-999.0,-999.0,50,-99.99,,---,-99.99,VWS V14.01,2013-10-31 06:01:00,
2013-10-30 23:06:00,55.8,37.4,-100.00,North,-999,-999.0,-999.0,50,-99.99,,---,-99.99,VWS V14.01,2013-10-31 06:06:00,
2013-10-30 23:11:00,55.6,37.2,-100.00,North,-999,-999.0,-999.0,50,-99.99,,---,-99.99,VWS V14.01,2013-10-31 06:11:00,
2013-10-30 23:16:00,55.4,37.1,-100.00,North,-999,-999.0,-999.0,50,-99.99,,---,-99.99,VWS V14.01,2013-10-31 06:16:00,
2013-10-30 23:21:00,55.2,37.4,-100.00,North,-999,-999.0,-999.0,51,-99.99,,---,-99.99,VWS V14.01,2013-10-31 06:21:00,
2013-10-30 23:26:00,55.2,37.4,-100.00,North,-999,-999.0,-999.0,51,-99.99,,---,-99.99,VWS V14.01,2013-10-31 06:26:00,
2013-10-30 23:31:00,55.0,37.3,-100.00,North,-999,-999.0,-999.0,51,-99.99,,---,-99.99,VWS V14.01,2013-10-31 06:31:00,
2013-10-30 23:36:00,55.0,37.3,-100.00,North,-999,-999.0,-999.0,51,-99.99,,---,-99.99,VWS V14.01,2013-10-31 06:36:00,
2013-10-30 23:41:00,54.9,37.1,-100.00,North,-999,-999.0,-999.0,51,-99.99,,---,-99.99,VWS V14.01,2013-10-31 06:41:00,
2013-10-30 23:46:00,54.7,36.9,-100.00,North,-999,-999.0,-999.0,51,-99.99,,---,-99.99,VWS V14.01,2013-10-31 06:46:00,
2013-10-30 23:51:00,54.7,37.4,-100.00,North,-999,-999.0,-999.0,52,-99.99,,---,-99.99,VWS V14.01,2013-10-31 06:51:00,
2013-10-30 23:56:00,54.7,37.4,-100.00,North,-999,-999.0,-999.0,52,-99.99,,---,-99.99,VWS V14.01,2013-10-31 06:56:00,